Date,Time,WBGT,Tg
2022/6/1,1:00,13.9,16.4
2022/6/1,2:00,13.8,16.4
2022/6/1,3:00,13.4,16.0
2022/6/1,4:00,12.8,15.2
2022/6/1,5:00,12.6,15.1
2022/6/1,6:00,13.7,19.0
2022/6/1,7:00,16.4,26.8
2022/6/1,8:00,17.7,30.3
2022/6/1,9:00,20.7,37.1
2022/6/1,10:00,20.8,35.6
2022/6/1,11:00,20.8,33.7
2022/6/1,12:00,20.8,33.1
2022/6/1,13:00,20.6,33.2
2022/6/1,14:00,20.6,39.3
2022/6/1,15:00,21.4,34.0
2022/6/1,16:00,20.4,36.1
2022/6/1,17:00,20.6,36.8
2022/6/1,18:00,20.4,34.2
2022/6/1,19:00,18.8,25.2
2022/6/1,20:00,18.1,21.3
2022/6/1,21:00,16.2,19.1
2022/6/1,22:00,15.4,18.4
2022/6/1,23:00,14.4,17.5
2022/6/1,24:00,14.2,17.7
2022/6/2,1:00,13.9,16.9
2022/6/2,2:00,13.9,16.7
2022/6/2,3:00,13.8,16.0
2022/6/2,4:00,13.8,15.7
2022/6/2,5:00,13.7,15.0
2022/6/2,6:00,14.9,19.2
2022/6/2,7:00,17.6,27.3
2022/6/2,8:00,20.5,35.4
2022/6/2,9:00,21.7,39.4
2022/6/2,10:00,22.8,40.7
2022/6/2,11:00,23.9,41.8
2022/6/2,12:00,23.7,41.1
2022/6/2,13:00,23.5,40.9
2022/6/2,14:00,23.7,42.2
2022/6/2,15:00,23.3,43.3
2022/6/2,16:00,22.8,42.4
2022/6/2,17:00,22.0,39.2
2022/6/2,18:00,20.4,30.4
2022/6/2,19:00,19.2,23.8
2022/6/2,20:00,19.1,21.2
2022/6/2,21:00,18.3,20.0
2022/6/2,22:00,17.7,19.8
2022/6/2,23:00,17.0,18.7
2022/6/2,24:00,17.0,18.6
2022/6/3,1:00,16.7,18.3
2022/6/3,2:00,16.5,18.1
2022/6/3,3:00,15.8,16.8
2022/6/3,4:00,15.7,17.2
2022/6/3,5:00,15.8,17.3
2022/6/3,6:00,17.1,21.2
2022/6/3,7:00,19.7,29.3
2022/6/3,8:00,22.1,35.9
2022/6/3,9:00,23.3,40.0
2022/6/3,10:00,23.9,40.5
2022/6/3,11:00,23.9,40.9
2022/6/3,12:00,23.9,40.9
2022/6/3,13:00,23.8,40.1
2022/6/3,14:00,24.3,41.9
2022/6/3,15:00,24.0,43.1
2022/6/3,16:00,23.2,42.7
2022/6/3,17:00,21.8,38.1
2022/6/3,18:00,21.3,30.7
2022/6/3,19:00,20.4,25.0
2022/6/3,20:00,19.6,23.2
2022/6/3,21:00,18.9,22.5
2022/6/3,22:00,18.1,21.9
2022/6/3,23:00,17.7,20.3
2022/6/3,24:00,17.7,19.8
2022/6/4,1:00,17.7,19.2
2022/6/4,2:00,17.4,18.7
2022/6/4,3:00,17.3,18.5
2022/6/4,4:00,17.2,18.6
2022/6/4,5:00,17.3,19.5
2022/6/4,6:00,18.5,23.6
2022/6/4,7:00,20.2,30.4
2022/6/4,8:00,22.4,36.6
2022/6/4,9:00,23.7,41.5
2022/6/4,10:00,23.7,41.5
2022/6/4,11:00,23.4,43.6
2022/6/4,12:00,24.9,45.1
2022/6/4,13:00,24.8,46.5
2022/6/4,14:00,24.5,46.5
2022/6/4,15:00,23.2,42.2
2022/6/4,16:00,22.9,42.5
2022/6/4,17:00,21.5,36.3
2022/6/4,18:00,19.2,28.8
2022/6/4,19:00,18.0,25.1
2022/6/4,20:00,18.6,23.7
2022/6/4,21:00,19.1,21.8
2022/6/4,22:00,19.3,21.3
2022/6/4,23:00,18.2,21.3
2022/6/4,24:00,17.8,20.5
2022/6/5,1:00,17.4,19.9
2022/6/5,2:00,17.5,19.9
2022/6/5,3:00,17.5,19.7
2022/6/5,4:00,17.7,19.8
2022/6/5,5:00,17.6,19.4
2022/6/5,6:00,17.9,20.5
2022/6/5,7:00,18.9,23.1
2022/6/5,8:00,19.2,23.4
2022/6/5,9:00,19.4,23.7
2022/6/5,10:00,19.7,25.1
2022/6/5,11:00,20.6,27.9
2022/6/5,12:00,19.5,23.9
2022/6/5,13:00,19.3,22.3
2022/6/5,14:00,20.0,24.3
2022/6/5,15:00,20.8,29.0
2022/6/5,16:00,18.8,20.5
2022/6/5,17:00,18.6,19.9
2022/6/5,18:00,17.9,18.4
2022/6/5,19:00,18.1,18.4
2022/6/5,20:00,17.5,17.9
2022/6/5,21:00,17.4,17.8
2022/6/5,22:00,17.8,18.2
2022/6/5,23:00,17.5,17.7
2022/6/5,24:00,17.6,17.7
2022/6/6,1:00,17.7,17.8
2022/6/6,2:00,18.0,18.3
2022/6/6,3:00,17.8,18.1
2022/6/6,4:00,17.9,18.1
2022/6/6,5:00,17.8,18.0
2022/6/6,6:00,17.9,18.5
2022/6/6,7:00,18.4,19.7
2022/6/6,8:00,19.1,22.9
2022/6/6,9:00,20.1,26.4
2022/6/6,10:00,21.2,31.2
2022/6/6,11:00,21.5,30.5
2022/6/6,12:00,21.3,29.4
2022/6/6,13:00,21.9,33.0
2022/6/6,14:00,19.1,21.7
2022/6/6,15:00,20.2,24.8
2022/6/6,16:00,21.4,28.1
2022/6/6,17:00,20.1,22.8
2022/6/6,18:00,19.6,22.6
2022/6/6,19:00,18.8,19.6
2022/6/6,20:00,18.7,19.5
2022/6/6,21:00,18.4,19.0
2022/6/6,22:00,18.3,18.5
2022/6/6,23:00,18.3,18.8
2022/6/6,24:00,18.1,18.6
2022/6/7,1:00,17.7,18.1
2022/6/7,2:00,17.4,17.9
2022/6/7,3:00,17.1,17.6
2022/6/7,4:00,16.7,16.8
2022/6/7,5:00,16.8,17.3
2022/6/7,6:00,17.6,21.2
2022/6/7,7:00,17.8,21.7
2022/6/7,8:00,20.5,31.0
2022/6/7,9:00,21.7,36.6
2022/6/7,10:00,20.9,36.0
2022/6/7,11:00,21.9,37.9
2022/6/7,12:00,20.9,34.6
2022/6/7,13:00,22.3,37.6
2022/6/7,14:00,22.3,37.8
2022/6/7,15:00,22.1,37.8
2022/6/7,16:00,21.4,36.4
2022/6/7,17:00,21.2,34.2
2022/6/7,18:00,19.9,28.2
2022/6/7,19:00,18.2,21.1
2022/6/7,20:00,18.0,19.8
2022/6/7,21:00,17.2,18.9
2022/6/7,22:00,16.9,18.5
2022/6/7,23:00,16.1,17.7
2022/6/7,24:00,15.7,17.0
2022/6/8,1:00,15.8,17.4
2022/6/8,2:00,15.8,16.8
2022/6/8,3:00,15.6,16.6
2022/6/8,4:00,15.6,16.5
2022/6/8,5:00,15.7,16.5
2022/6/8,6:00,16.2,19.1
2022/6/8,7:00,17.4,23.2
2022/6/8,8:00,19.1,29.0
2022/6/8,9:00,20.3,33.5
2022/6/8,10:00,22.1,37.5
2022/6/8,11:00,22.3,38.3
2022/6/8,12:00,22.5,38.2
2022/6/8,13:00,22.1,38.7
2022/6/8,14:00,22.9,41.0
2022/6/8,15:00,22.1,41.7
2022/6/8,16:00,22.0,40.5
2022/6/8,17:00,21.5,35.3
2022/6/8,18:00,19.8,30.1
2022/6/8,19:00,18.9,24.1
2022/6/8,20:00,18.3,21.5
2022/6/8,21:00,17.8,19.7
2022/6/8,22:00,17.4,18.8
2022/6/8,23:00,17.2,18.6
2022/6/8,24:00,16.8,17.8
2022/6/9,1:00,16.7,17.7
2022/6/9,2:00,16.4,17.4
2022/6/9,3:00,16.2,16.9
2022/6/9,4:00,15.9,16.4
2022/6/9,5:00,16.1,16.8
2022/6/9,6:00,17.2,20.4
2022/6/9,7:00,19.0,25.8
2022/6/9,8:00,21.3,33.2
2022/6/9,9:00,23.0,38.1
2022/6/9,10:00,23.5,39.2
2022/6/9,11:00,23.6,39.3
2022/6/9,12:00,24.0,39.4
2022/6/9,13:00,24.4,40.3
2022/6/9,14:00,25.4,41.9
2022/6/9,15:00,25.1,41.9
2022/6/9,16:00,25.2,41.1
2022/6/9,17:00,24.1,36.8
2022/6/9,18:00,22.2,30.2
2022/6/9,19:00,21.1,24.5
2022/6/9,20:00,20.4,22.6
2022/6/9,21:00,20.2,21.8
2022/6/9,22:00,19.8,21.0
2022/6/9,23:00,19.5,20.8
2022/6/9,24:00,19.2,20.3
2022/6/10,1:00,18.9,19.6
2022/6/10,2:00,18.7,19.7
2022/6/10,3:00,18.5,19.2
2022/6/10,4:00,18.8,20.3
2022/6/10,5:00,19.2,20.5
2022/6/10,6:00,19.8,23.8
2022/6/10,7:00,22.0,30.8
2022/6/10,8:00,23.5,35.3
2022/6/10,9:00,24.4,37.6
2022/6/10,10:00,25.5,42.0
2022/6/10,11:00,26.1,42.3
2022/6/10,12:00,25.3,41.8
2022/6/10,13:00,25.4,40.5
2022/6/10,14:00,25.0,37.9
2022/6/10,15:00,24.8,36.5
2022/6/10,16:00,23.9,34.4
2022/6/10,17:00,22.9,28.9
2022/6/10,18:00,22.2,26.3
2022/6/10,19:00,21.9,24.3
2022/6/10,20:00,21.4,23.1
2022/6/10,21:00,21.0,22.5
2022/6/10,22:00,20.8,21.9
2022/6/10,23:00,20.9,22.2
2022/6/10,24:00,20.8,22.0
2022/6/11,1:00,20.3,21.6
2022/6/11,2:00,20.3,21.4
2022/6/11,3:00,20.5,21.4
2022/6/11,4:00,20.6,21.9
2022/6/11,5:00,19.9,20.6
2022/6/11,6:00,20.0,21.3
2022/6/11,7:00,20.6,23.5
2022/6/11,8:00,21.5,26.4
2022/6/11,9:00,21.5,25.7
2022/6/11,10:00,21.6,25.4
2022/6/11,11:00,21.6,25.7
2022/6/11,12:00,23.1,31.2
2022/6/11,13:00,22.1,27.3
2022/6/11,14:00,20.4,23.7
2022/6/11,15:00,21.2,26.8
2022/6/11,16:00,20.8,25.0
2022/6/11,17:00,20.5,23.2
2022/6/11,18:00,20.3,22.7
2022/6/11,19:00,20.0,21.3
2022/6/11,20:00,18.9,19.9
2022/6/11,21:00,19.1,20.0
2022/6/11,22:00,18.6,19.2
2022/6/11,23:00,18.5,19.1
2022/6/11,24:00,18.2,18.6
2022/6/12,1:00,18.1,18.3
2022/6/12,2:00,17.7,17.8
2022/6/12,3:00,17.4,17.7
2022/6/12,4:00,17.1,17.2
2022/6/12,5:00,17.0,17.3
2022/6/12,6:00,18.0,21.0
2022/6/12,7:00,20.3,28.0
2022/6/12,8:00,22.3,34.2
2022/6/12,9:00,24.3,38.2
2022/6/12,10:00,23.5,37.6
2022/6/12,11:00,24.0,38.8
2022/6/12,12:00,25.4,40.9
2022/6/12,13:00,26.1,42.8
2022/6/12,14:00,26.4,43.8
2022/6/12,15:00,25.4,41.4
2022/6/12,16:00,23.5,35.6
2022/6/12,17:00,22.1,29.6
2022/6/12,18:00,22.0,29.2
2022/6/12,19:00,20.6,23.6
2022/6/12,20:00,20.2,22.2
2022/6/12,21:00,20.5,22.4
2022/6/12,22:00,19.9,21.2
2022/6/12,23:00,19.7,21.1
2022/6/12,24:00,18.7,20.1
2022/6/13,1:00,18.1,19.7
2022/6/13,2:00,17.5,19.2
2022/6/13,3:00,17.5,18.9
2022/6/13,4:00,17.1,18.5
2022/6/13,5:00,17.3,18.8
2022/6/13,6:00,18.2,21.5
2022/6/13,7:00,19.0,24.0
2022/6/13,8:00,20.1,28.6
2022/6/13,9:00,20.9,30.8
2022/6/13,10:00,22.1,34.3
2022/6/13,11:00,23.1,35.7
2022/6/13,12:00,21.1,29.5
2022/6/13,13:00,20.8,28.3
2022/6/13,14:00,21.4,29.5
2022/6/13,15:00,21.7,31.9
2022/6/13,16:00,21.3,28.3
2022/6/13,17:00,20.4,25.1
2022/6/13,18:00,20.1,23.1
2022/6/13,19:00,19.6,21.1
2022/6/13,20:00,19.2,20.0
2022/6/13,21:00,19.2,19.8
2022/6/13,22:00,19.0,19.6
2022/6/13,23:00,18.7,18.9
2022/6/13,24:00,18.7,19.0
2022/6/14,1:00,18.6,19.1
2022/6/14,2:00,18.2,18.4
2022/6/14,3:00,17.9,18.1
2022/6/14,4:00,17.8,17.9
2022/6/14,5:00,18.0,18.2
2022/6/14,6:00,18.0,18.8
2022/6/14,7:00,19.0,22.1
2022/6/14,8:00,20.3,25.2
2022/6/14,9:00,20.3,26.4
2022/6/14,10:00,20.3,25.1
2022/6/14,11:00,23.0,35.3
2022/6/14,12:00,22.9,32.8
2022/6/14,13:00,21.8,27.5
2022/6/14,14:00,22.4,29.6
2022/6/14,15:00,22.2,28.8
2022/6/14,16:00,22.3,29.0
2022/6/14,17:00,21.5,25.2
2022/6/14,18:00,20.9,23.6
2022/6/14,19:00,20.1,21.0
2022/6/14,20:00,19.5,20.1
2022/6/14,21:00,19.7,20.3
2022/6/14,22:00,19.6,20.0
2022/6/14,23:00,19.5,20.1
2022/6/14,24:00,19.4,19.9
2022/6/15,1:00,19.5,20.1
2022/6/15,2:00,19.4,19.9
2022/6/15,3:00,19.3,19.8
2022/6/15,4:00,19.1,19.5
2022/6/15,5:00,19.1,19.3
2022/6/15,6:00,19.5,20.0
2022/6/15,7:00,19.8,21.9
2022/6/15,8:00,20.9,25.9
2022/6/15,9:00,21.0,24.5
2022/6/15,10:00,20.3,23.9
2022/6/15,11:00,20.6,25.9
2022/6/15,12:00,22.3,31.6
2022/6/15,13:00,21.7,27.3
2022/6/15,14:00,24.5,35.6
2022/6/15,15:00,25.7,39.8
2022/6/15,16:00,25.4,38.6
2022/6/15,17:00,25.2,36.6
2022/6/15,18:00,23.1,28.5
2022/6/15,19:00,22.1,24.0
2022/6/15,20:00,21.6,22.6
2022/6/15,21:00,21.3,22.2
2022/6/15,22:00,21.1,21.8
2022/6/15,23:00,20.6,21.3
2022/6/15,24:00,20.3,21.0
2022/6/16,1:00,20.2,20.8
2022/6/16,2:00,20.0,20.5
2022/6/16,3:00,20.1,20.5
2022/6/16,4:00,20.0,20.3
2022/6/16,5:00,20.2,20.6
2022/6/16,6:00,20.4,21.2
2022/6/16,7:00,21.1,23.7
2022/6/16,8:00,22.4,27.4
2022/6/16,9:00,24.4,34.3
2022/6/16,10:00,25.3,36.0
2022/6/16,11:00,26.1,39.8
2022/6/16,12:00,27.0,41.7
2022/6/16,13:00,27.4,41.8
2022/6/16,14:00,26.9,41.8
2022/6/16,15:00,26.2,39.6
2022/6/16,16:00,26.2,38.1
2022/6/16,17:00,25.1,35.4
2022/6/16,18:00,24.2,31.0
2022/6/16,19:00,23.2,25.7
2022/6/16,20:00,22.7,24.2
2022/6/16,21:00,22.2,23.8
2022/6/16,22:00,22.1,23.4
2022/6/16,23:00,21.6,23.0
2022/6/16,24:00,21.1,22.3
2022/6/17,1:00,20.9,22.0
2022/6/17,2:00,20.7,22.0
2022/6/17,3:00,20.4,21.5
2022/6/17,4:00,20.1,21.1
2022/6/17,5:00,20.2,21.6
2022/6/17,6:00,20.8,22.9
2022/6/17,7:00,22.9,30.0
2022/6/17,8:00,24.6,36.1
2022/6/17,9:00,24.1,32.3
2022/6/17,10:00,26.4,41.7
2022/6/17,11:00,27.1,45.9
2022/6/17,12:00,27.5,49.5
2022/6/17,13:00,26.0,38.2
2022/6/17,14:00,26.2,40.2
2022/6/17,15:00,26.3,41.0
2022/6/17,16:00,27.4,42.6
2022/6/17,17:00,27.1,39.8
2022/6/17,18:00,25.0,31.4
2022/6/17,19:00,23.9,27.3
2022/6/17,20:00,23.4,25.7
2022/6/17,21:00,22.9,24.3
2022/6/17,22:00,22.5,23.8
2022/6/17,23:00,22.2,23.3
2022/6/17,24:00,21.9,22.7
2022/6/18,1:00,22.0,23.0
2022/6/18,2:00,21.4,22.6
2022/6/18,3:00,21.1,22.2
2022/6/18,4:00,20.6,22.1
2022/6/18,5:00,20.6,22.4
2022/6/18,6:00,21.4,24.8
2022/6/18,7:00,22.7,30.2
2022/6/18,8:00,24.2,34.1
2022/6/18,9:00,24.8,35.3
2022/6/18,10:00,26.5,41.1
2022/6/18,11:00,25.6,37.7
2022/6/18,12:00,26.4,41.9
2022/6/18,13:00,27.5,43.1
2022/6/18,14:00,26.4,40.7
2022/6/18,15:00,25.8,37.5
2022/6/18,16:00,26.1,39.6
2022/6/18,17:00,25.5,37.0
2022/6/18,18:00,23.8,31.4
2022/6/18,19:00,22.8,26.3
2022/6/18,20:00,22.6,25.2
2022/6/18,21:00,22.0,23.8
2022/6/18,22:00,22.1,23.3
2022/6/18,23:00,21.7,22.8
2022/6/18,24:00,21.3,22.5
2022/6/19,1:00,21.3,22.4
2022/6/19,2:00,21.4,22.3
2022/6/19,3:00,21.4,22.5
2022/6/19,4:00,22.0,23.1
2022/6/19,5:00,21.9,23.1
2022/6/19,6:00,22.3,24.4
2022/6/19,7:00,23.5,28.6
2022/6/19,8:00,24.0,29.9
2022/6/19,9:00,25.9,37.5
2022/6/19,10:00,27.6,42.4
2022/6/19,11:00,27.8,43.0
2022/6/19,12:00,27.8,43.2
2022/6/19,13:00,27.5,42.0
2022/6/19,14:00,27.4,43.2
2022/6/19,15:00,26.0,38.6
2022/6/19,16:00,25.6,36.5
2022/6/19,17:00,25.3,32.8
2022/6/19,18:00,24.1,28.1
2022/6/19,19:00,23.5,25.4
2022/6/19,20:00,23.3,24.6
2022/6/19,21:00,23.1,24.4
2022/6/19,22:00,23.1,24.4
2022/6/19,23:00,22.8,24.0
2022/6/19,24:00,22.3,23.4
2022/6/20,1:00,22.3,23.2
2022/6/20,2:00,22.2,23.2
2022/6/20,3:00,21.9,23.1
2022/6/20,4:00,21.8,22.7
2022/6/20,5:00,21.6,22.6
2022/6/20,6:00,21.7,23.9
2022/6/20,7:00,22.8,27.5
2022/6/20,8:00,24.3,31.6
2022/6/20,9:00,25.7,36.0
2022/6/20,10:00,26.0,37.2
2022/6/20,11:00,26.9,41.7
2022/6/20,12:00,27.6,42.8
2022/6/20,13:00,27.7,43.0
2022/6/20,14:00,27.0,40.8
2022/6/20,15:00,26.9,38.3
2022/6/20,16:00,25.8,34.2
2022/6/20,17:00,25.1,31.2
2022/6/20,18:00,24.0,26.6
2022/6/20,19:00,23.3,25.5
2022/6/20,20:00,23.7,25.5
2022/6/20,21:00,23.2,25.4
2022/6/20,22:00,23.6,25.3
2022/6/20,23:00,23.4,24.8
2022/6/20,24:00,23.1,24.3
2022/6/21,1:00,23.3,24.6
2022/6/21,2:00,23.2,24.2
2022/6/21,3:00,23.1,23.7
2022/6/21,4:00,23.0,23.8
2022/6/21,5:00,22.6,23.2
2022/6/21,6:00,22.3,23.2
2022/6/21,7:00,22.5,23.8
2022/6/21,8:00,22.9,25.4
2022/6/21,9:00,22.4,23.7
2022/6/21,10:00,22.5,23.6
2022/6/21,11:00,23.2,26.2
2022/6/21,12:00,23.5,27.2
2022/6/21,13:00,24.4,31.0
2022/6/21,14:00,24.8,30.8
2022/6/21,15:00,24.8,29.7
2022/6/21,16:00,24.9,28.1
2022/6/21,17:00,23.9,24.6
2022/6/21,18:00,24.1,25.2
2022/6/21,19:00,23.1,23.4
2022/6/21,20:00,23.3,23.4
2022/6/21,21:00,23.4,23.5
2022/6/21,22:00,22.9,23.0
2022/6/21,23:00,22.9,22.9
2022/6/21,24:00,21.9,22.0
2022/6/22,1:00,22.0,22.0
2022/6/22,2:00,21.6,21.6
2022/6/22,3:00,21.9,21.9
2022/6/22,4:00,22.3,22.3
2022/6/22,5:00,22.2,22.2
2022/6/22,6:00,22.7,23.7
2022/6/22,7:00,23.4,27.6
2022/6/22,8:00,23.6,27.1
2022/6/22,9:00,24.7,29.9
2022/6/22,10:00,25.7,34.0
2022/6/22,11:00,25.3,31.8
2022/6/22,12:00,25.6,32.0
2022/6/22,13:00,28.1,42.1
2022/6/22,14:00,28.0,39.1
2022/6/22,15:00,28.4,41.6
2022/6/22,16:00,27.4,39.6
2022/6/22,17:00,27.9,40.2
2022/6/22,18:00,26.2,33.1
2022/6/22,19:00,25.4,28.9
2022/6/22,20:00,24.8,27.0
2022/6/22,21:00,24.6,26.1
2022/6/22,22:00,24.2,25.4
2022/6/22,23:00,23.6,24.5
2022/6/22,24:00,23.3,24.1
2022/6/23,1:00,23.3,24.2
2022/6/23,2:00,23.3,24.4
2022/6/23,3:00,23.3,24.4
2022/6/23,4:00,23.4,24.5
2022/6/23,5:00,23.4,24.5
2022/6/23,6:00,24.6,28.8
2022/6/23,7:00,26.7,36.2
2022/6/23,8:00,28.1,40.9
2022/6/23,9:00,27.8,38.1
2022/6/23,10:00,30.3,46.5
2022/6/23,11:00,29.9,46.8
2022/6/23,12:00,31.2,48.2
2022/6/23,13:00,30.4,47.3
2022/6/23,14:00,30.3,49.1
2022/6/23,15:00,31.6,51.0
2022/6/23,16:00,31.3,49.7
2022/6/23,17:00,30.2,46.1
2022/6/23,18:00,28.8,39.1
2022/6/23,19:00,27.2,32.0
2022/6/23,20:00,26.8,29.4
2022/6/23,21:00,26.6,29.5
2022/6/23,22:00,26.5,29.5
2022/6/23,23:00,26.2,28.9
2022/6/23,24:00,26.0,28.5
2022/6/24,1:00,26.0,29.1
2022/6/24,2:00,25.5,28.3
2022/6/24,3:00,25.2,27.7
2022/6/24,4:00,25.1,27.6
2022/6/24,5:00,25.1,27.5
2022/6/24,6:00,25.4,29.1
2022/6/24,7:00,26.4,33.2
2022/6/24,8:00,28.1,39.7
2022/6/24,9:00,28.5,41.8
2022/6/24,10:00,30.0,47.0
2022/6/24,11:00,29.9,47.3
2022/6/24,12:00,29.4,45.2
2022/6/24,13:00,30.9,48.6
2022/6/24,14:00,30.3,49.2
2022/6/24,15:00,30.7,48.2
2022/6/24,16:00,30.1,44.8
2022/6/24,17:00,29.7,43.5
2022/6/24,18:00,28.5,38.3
2022/6/24,19:00,26.6,31.1
2022/6/24,20:00,26.3,29.8
2022/6/24,21:00,26.1,29.5
2022/6/24,22:00,25.2,28.3
2022/6/24,23:00,25.7,28.9
2022/6/24,24:00,25.6,28.0
2022/6/25,1:00,25.2,27.4
2022/6/25,2:00,25.0,27.1
2022/6/25,3:00,24.9,26.9
2022/6/25,4:00,24.7,26.5
2022/6/25,5:00,24.8,26.4
2022/6/25,6:00,25.3,28.2
2022/6/25,7:00,26.9,33.9
2022/6/25,8:00,28.7,42.6
2022/6/25,9:00,29.3,42.9
2022/6/25,10:00,29.5,44.3
2022/6/25,11:00,26.6,31.7
2022/6/25,12:00,23.8,25.1
2022/6/25,13:00,23.7,27.3
2022/6/25,14:00,25.0,29.8
2022/6/25,15:00,22.4,24.8
2022/6/25,16:00,22.7,25.7
2022/6/25,17:00,22.6,25.2
2022/6/25,18:00,22.8,25.8
2022/6/25,19:00,22.5,23.9
2022/6/25,20:00,22.0,23.0
2022/6/25,21:00,21.9,23.1
2022/6/25,22:00,21.8,23.1
2022/6/25,23:00,21.5,22.3
2022/6/25,24:00,21.5,22.4
2022/6/26,1:00,21.3,22.3
2022/6/26,2:00,21.4,22.6
2022/6/26,3:00,21.7,23.3
2022/6/26,4:00,21.3,22.2
2022/6/26,5:00,20.9,21.6
2022/6/26,6:00,21.9,24.0
2022/6/26,7:00,23.1,26.7
2022/6/26,8:00,23.9,27.6
2022/6/26,9:00,25.2,32.1
2022/6/26,10:00,24.9,31.6
2022/6/26,11:00,25.2,29.8
2022/6/26,12:00,28.4,44.0
2022/6/26,13:00,29.5,45.7
2022/6/26,14:00,30.5,47.8
2022/6/26,15:00,29.9,46.2
2022/6/26,16:00,28.4,42.1
2022/6/26,17:00,28.3,42.0
2022/6/26,18:00,28.1,39.0
2022/6/26,19:00,26.0,30.2
2022/6/26,20:00,25.3,28.7
2022/6/26,21:00,24.9,26.8
2022/6/26,22:00,24.5,27.0
2022/6/26,23:00,24.2,25.8
2022/6/26,24:00,24.3,25.7
2022/6/27,1:00,24.0,25.4
2022/6/27,2:00,23.3,24.8
2022/6/27,3:00,23.3,24.2
2022/6/27,4:00,23.2,24.1
2022/6/27,5:00,23.4,24.4
2022/6/27,6:00,24.0,27.1
2022/6/27,7:00,25.5,33.3
2022/6/27,8:00,27.6,38.1
2022/6/27,9:00,27.5,38.2
2022/6/27,10:00,27.6,37.6
2022/6/27,11:00,28.8,42.5
2022/6/27,12:00,29.5,42.3
2022/6/27,13:00,30.3,46.1
2022/6/27,14:00,29.7,45.0
2022/6/27,15:00,31.0,46.0
2022/6/27,16:00,29.4,42.6
2022/6/27,17:00,28.7,37.9
2022/6/27,18:00,26.7,31.3
2022/6/27,19:00,26.0,28.5
2022/6/27,20:00,25.6,27.4
2022/6/27,21:00,25.4,26.9
2022/6/27,22:00,25.5,26.9
2022/6/27,23:00,25.0,26.2
2022/6/27,24:00,24.6,25.9
2022/6/28,1:00,24.2,25.7
2022/6/28,2:00,23.7,25.3
2022/6/28,3:00,23.3,24.8
2022/6/28,4:00,23.2,24.8
2022/6/28,5:00,23.4,24.9
2022/6/28,6:00,24.2,29.1
2022/6/28,7:00,26.7,36.5
2022/6/28,8:00,29.2,43.3
2022/6/28,9:00,29.0,44.5
2022/6/28,10:00,30.3,46.6
2022/6/28,11:00,30.6,46.7
2022/6/28,12:00,29.9,46.2
2022/6/28,13:00,30.1,46.5
2022/6/28,14:00,30.3,47.6
2022/6/28,15:00,30.0,49.2
2022/6/28,16:00,29.8,46.2
2022/6/28,17:00,28.5,42.0
2022/6/28,18:00,26.8,35.6
2022/6/28,19:00,25.3,28.9
2022/6/28,20:00,24.8,27.8
2022/6/28,21:00,25.0,29.4
2022/6/28,22:00,24.6,29.1
2022/6/28,23:00,24.6,29.1
2022/6/28,24:00,24.4,28.1
2022/6/29,1:00,24.2,27.6
2022/6/29,2:00,23.9,26.7
2022/6/29,3:00,23.4,25.4
2022/6/29,4:00,24.1,27.5
2022/6/29,5:00,23.2,26.2
2022/6/29,6:00,24.7,31.2
2022/6/29,7:00,26.4,37.9
2022/6/29,8:00,28.5,43.6
2022/6/29,9:00,29.0,45.7
2022/6/29,10:00,29.7,48.3
2022/6/29,11:00,30.7,47.9
2022/6/29,12:00,30.6,47.7
2022/6/29,13:00,30.1,48.5
2022/6/29,14:00,30.1,51.1
2022/6/29,15:00,30.0,49.1
2022/6/29,16:00,29.6,47.4
2022/6/29,17:00,29.5,44.2
2022/6/29,18:00,27.7,37.8
2022/6/29,19:00,25.8,30.3
2022/6/29,20:00,25.1,28.0
2022/6/29,21:00,24.5,26.9
2022/6/29,22:00,24.6,26.7
2022/6/29,23:00,24.3,26.2
2022/6/29,24:00,24.5,26.1
2022/6/30,1:00,24.4,26.4
2022/6/30,2:00,24.5,26.0
2022/6/30,3:00,24.2,26.0
2022/6/30,4:00,24.1,25.8
2022/6/30,5:00,23.9,25.4
2022/6/30,6:00,24.2,29.0
2022/6/30,7:00,26.6,36.4
2022/6/30,8:00,28.2,42.4
2022/6/30,9:00,29.3,45.0
2022/6/30,10:00,29.6,45.9
2022/6/30,11:00,29.3,44.9
2022/6/30,12:00,30.1,46.1
2022/6/30,13:00,30.9,47.2
2022/6/30,14:00,30.8,47.4
2022/6/30,15:00,31.4,47.3
2022/6/30,16:00,30.1,45.6
2022/6/30,17:00,29.4,42.6
2022/6/30,18:00,27.9,37.1
2022/6/30,19:00,26.6,30.9
2022/6/30,20:00,25.9,28.0
2022/6/30,21:00,25.6,27.4
2022/6/30,22:00,24.9,26.3
2022/6/30,23:00,24.1,25.7
2022/6/30,24:00,23.6,25.3
